Clinton-Sherman, OK

7:14 PM CST on January 20, 2018 (GMT -0600)
Clinton-Sherman

Weather History for KCSM - February, 2014

Change the Weather History Date:

Sunday, February 2, 2014

  Actual Average Record
Temperature  
Mean Temperature 27 °F -  
Max Temperature 35 °F 48 °F 80 °F (2003)
Min Temperature 19 °F 28 °F 1 °F (2011)
Degree Days  
Heating Degree Days 38    
Moisture  
Dew Point 16 °F    
Average Humidity 71    
Maximum Humidity 93    
Minimum Humidity 40    
Precipitation  
Precipitation 0.00 in - - ()
Sea Level Pressure  
Sea Level Pressure 30.25 in    
Wind  
Wind Speed 19 mph (NNE)    
Max Wind Speed 25 mph    
Max Gust Speed 32 mph    
Visibility 7 miles    
Events Snow    
Averages and records for this station are not official NWS values.
T = Trace of Precipitation, MM = Missing Value Source: NWS Daily Summary

Daily Weather History Graph

Daily Weather History Graph

Search for Another Location

Airport or City:

Trip Planner

Search our weather history database for the weather conditions in past years. The results will help you decide how hot, cold, wet, or windy it might be!

Date:

Astronomy

Feb. 02, 2014 Rise Set
Actual Time 7:35 AM CST 6:06 PM CST
Civil Twilight 7:08 AM CST 6:32 PM CST
Nautical Twilight 6:38 AM CST 7:03 PM CST
Astronomical Twilight 6:08 AM CST 7:33 PM CST
Moon 9:11 AM CST (2/2) 9:41 PM CST (2/2)
Length of Visible Light 11h 24m
Length of Day
10h 30m
Waxing Crescent, 11% of the Moon is Illuminated
Feb 2
Waxing Crescent
Feb 6
First Quarter
Feb 14
Full
Feb 22
Last Quarter
Mar 1
New

Hourly Weather History & Observations

Time (CST) Temp. Windchill Dew Point Humidity Pressure Visibility Wind Dir Wind Speed Gust Speed Precip Events Conditions
12:53 AM 28.0 °F 13.9 °F 19.9 °F 72% 30.21 in 10.0 mi NNE 23.0 mph 31.1 mph N/A   Overcast
1:00 AM 28.4 °F 15.4 °F 19.4 °F 69% 30.17 in 10.0 mi NNE 19.6 mph - N/A   Overcast
1:35 AM 26.6 °F 13.4 °F 19.4 °F 74% 30.19 in 10.0 mi North 18.4 mph - N/A   Overcast
1:53 AM 27.0 °F 12.8 °F 18.0 °F 69% 30.22 in 10.0 mi North 21.9 mph 28.8 mph N/A   Overcast
2:53 AM 25.0 °F 9.2 °F 17.1 °F 72% 30.21 in 10.0 mi North 25.3 mph 32.2 mph N/A   Overcast
3:53 AM 25.0 °F 10.9 °F 16.0 °F 69% 30.25 in 10.0 mi North 19.6 mph - N/A   Overcast
4:23 AM 23.0 °F 8.7 °F 17.6 °F 80% 30.19 in 2.5 mi North 18.4 mph 25.3 mph 0.00 in Snow Light Snow
4:35 AM 23.0 °F 8.7 °F 19.4 °F 86% 30.20 in 1.2 mi North 18.4 mph - 0.00 in Snow Light Snow
4:53 AM 23.0 °F 8.7 °F 19.0 °F 85% 30.24 in 2.0 mi North 18.4 mph - 0.00 in Snow Light Snow
5:07 AM 21.2 °F 6.8 °F 19.4 °F 93% 30.19 in 3.0 mi North 17.3 mph - 0.00 in Snow Light Snow
5:17 AM 21.2 °F 6.4 °F 19.4 °F 93% 30.19 in 2.0 mi North 18.4 mph - 0.00 in Snow Light Snow
5:26 AM 21.2 °F 5.2 °F 19.4 °F 93% 30.18 in 1.0 mi North 21.9 mph - 0.00 in Snow Light Snow
5:41 AM 21.2 °F 5.2 °F 19.4 °F 93% 30.17 in 1.0 mi North 21.9 mph - 0.00 in Snow Light Snow
5:53 AM 21.9 °F 5.8 °F 19.0 °F 89% 30.23 in 1.0 mi North 23.0 mph 31.1 mph 0.00 in Snow Light Snow
6:03 AM 21.2 °F 4.5 °F 19.4 °F 93% 30.18 in 0.8 mi North 24.2 mph - 0.00 in Snow Light Snow
6:13 AM 21.2 °F 5.2 °F 19.4 °F 93% 30.18 in 1.2 mi North 21.9 mph 28.8 mph 0.00 in Snow Light Snow
6:53 AM 21.0 °F 5.0 °F 18.0 °F 88% 30.25 in 1.0 mi North 21.9 mph - 0.00 in Snow Light Snow
7:02 AM 21.2 °F 5.6 °F 17.6 °F 86% 30.19 in 1.0 mi North 20.7 mph - 0.00 in Snow Light Snow
7:25 AM 19.4 °F 3.2 °F 17.6 °F 93% 30.20 in 1.8 mi North 20.7 mph - 0.00 in Snow Light Snow
7:33 AM 19.4 °F 3.2 °F 17.6 °F 93% 30.20 in 2.5 mi North 20.7 mph - 0.00 in Snow Light Snow
7:43 AM 21.2 °F 5.6 °F 15.8 °F 80% 30.22 in 4.0 mi North 20.7 mph - 0.00 in Snow Light Snow
7:53 AM 21.0 °F 4.6 °F 15.1 °F 78% 30.27 in 5.0 mi North 23.0 mph - 0.00 in   Overcast
8:53 AM 21.0 °F 5.7 °F 12.9 °F 71% 30.33 in 10.0 mi North 19.6 mph - 0.00 in   Overcast
9:53 AM 21.0 °F 5.4 °F 12.0 °F 68% 30.34 in 10.0 mi North 20.7 mph 26.5 mph N/A   Overcast
10:53 AM 21.9 °F 8.2 °F 12.0 °F 66% 30.36 in 10.0 mi North 16.1 mph - N/A   Overcast
11:53 AM 25.0 °F 13.1 °F 12.9 °F 60% 30.35 in 10.0 mi North 13.8 mph - N/A   Overcast
12:53 PM 28.0 °F 18.6 °F 12.9 °F 53% 30.32 in 10.0 mi NNE 10.4 mph - N/A   Overcast
1:53 PM 30.0 °F 19.5 °F 12.9 °F 49% 30.27 in 10.0 mi NNE 13.8 mph - N/A   Mostly Cloudy
2:53 PM 33.1 °F 23.9 °F 14.0 °F 46% 30.26 in 10.0 mi NNE 12.7 mph - N/A   Clear
3:53 PM 35.1 °F 27.4 °F 12.9 °F 40% 30.26 in 10.0 mi NNE 10.4 mph - N/A   Clear
4:53 PM 34.0 °F 26.6 °F 12.0 °F 40% 30.27 in 10.0 mi NE 9.2 mph - N/A   Clear
5:53 PM 30.9 °F 23.5 °F 12.9 °F 47% 30.27 in 10.0 mi NE 8.1 mph - N/A   Scattered Clouds
6:53 PM 28.9 °F 21.9 °F 14.0 °F 54% 30.30 in 10.0 mi ENE 6.9 mph - N/A   Overcast
7:53 PM 30.0 °F 24.1 °F 14.0 °F 51% 30.31 in 10.0 mi ENE 5.8 mph - N/A   Overcast
8:53 PM 28.9 °F 21.1 °F 14.0 °F 54% 30.31 in 10.0 mi ENE 8.1 mph - N/A   Overcast
9:53 PM 28.0 °F 20.0 °F 12.9 °F 53% 30.30 in 10.0 mi East 8.1 mph - N/A   Overcast
10:53 PM 28.0 °F 24.2 °F 12.0 °F 51% 30.31 in 10.0 mi East 3.5 mph - N/A   Overcast
11:53 PM 28.0 °F 21.7 °F 10.9 °F 49% 30.32 in 10.0 mi East 5.8 mph - N/A   Overcast